Location: Allonne
(49.4086°N, 2.1143°E)
Time: 06:53:26
(UTC+00:00)

SO-50 - Pass Details

Date: 12 December 2023
Orbit: 608 x 661 km, 64.6° (Epoch: 25 February)

Event Time Altitude Azimuth Distance (km) Brightness Sun altitude
Exits shadow 05:48:55 11° 344° (NNW) 1,965 ? -16.7°
Maximum altitude 05:50:11 12° 1° (N) 1,891 ? -16.5°
Drops below altitude 10° 05:52:03 10° 25° (NNE) 2,027 ? -16.2°
Sets 05:55:46 0° 56° (ENE) 2,919 ? -15.6°
